Flag for U.S.A. Weather past 2 weeks in Kalamazoo, Michigan, U.S.A.

Now
57 °F

Clear.


Feels Like: 57 °F
Forecast: 48 / 76 °F
Wind: 5 mph from South

Location: Kalamazoo / Battle Creek International Airport

Current Time: Jun 3, 2015 at 1:51:11 AM

Latest Report: Jun 3, 2015 at 12:53 AM


Visibility: 10 mi

Pressure: 30.13 "Hg

Humidity: 62%

Dew point: 44 °F

Location of KalamazooLocation

Historic Weather in Kalamazoo — Graph

°F

Kalamazoo temperature yesterday

Maximum temperature yesterday: 72 °F (at 3:53 PM)
Minimum temperature yesterday: 43 °F (at 5:53 AM)
Average temperature yesterday: 60 °F

Past Weeks' High & Low Weather Summary

 TemperatureHumidityPressure
High83 °F (May 29, 3:53 PM)97% (May 28, 4:01 AM)30.39 "Hg (May 28, 4:01 AM)
Low35 °F (May 20, 4:53 AM)20% (May 23, 12:53 PM)29.80 "Hg (May 26, 3:53 PM)
Average61 °F64%30.11 "Hg
* Reported May 19 12:53 AM — Jun 3 12:53 AM, Kalamazoo, Weather by CustomWeather, © 2015

Note: Actual official high and low records may vary slightly from our data, if they occured in-between our weather recording intervals... More about our weather records

Advertising

Kalamazoo weather history for previous 24 hours

 ConditionsComfort  
Time TempWeatherWind HumidityBarometerVisibility
12:53 AM
Wed, Jun 3
57 °FClear.5 mph62%30.13 "Hg10 mi
11:53 PM
Tue, Jun 2
60 °FClear.6 mph56%30.14 "Hg10 mi
10:53 PM62 °FClear.6 mph60%30.14 "Hg10 mi
9:53 PM63 °FSunny.3 mph63%30.12 "Hg10 mi
8:53 PM66 °FSunny.No wind56%30.11 "Hg10 mi
7:53 PM70 °FSunny.3 mph46%30.10 "Hg10 mi
6:53 PM72 °FSunny.6 mph44%30.10 "Hg10 mi
5:53 PM72 °FPassing clouds.7 mph44%30.11 "Hg10 mi
4:53 PM72 °FPassing clouds.No wind43%30.11 "Hg10 mi
3:53 PM72 °FSunny.3 mph44%30.13 "Hg10 mi
2:53 PM71 °FSunny.6 mph42%30.15 "Hg10 mi
1:53 PM69 °FSunny.5 mph42%30.17 "Hg10 mi
12:53 PM67 °FSunny.7 mph49%30.20 "Hg10 mi
11:53 AM66 °FSunny.7 mph49%30.22 "Hg10 mi
10:53 AM63 °FSunny.3 mph52%30.22 "Hg10 mi
9:53 AM60 °FSunny.3 mph58%30.23 "Hg10 mi
8:53 AM55 °FSunny.3 mph69%30.24 "Hg10 mi
7:53 AM50 °FSunny.3 mph83%30.23 "Hg10 mi
6:53 AM43 °FClear.No wind93%30.21 "Hg10 mi
5:53 AM43 °FClear.No wind86%30.21 "Hg10 mi
4:53 AM45 °FClear.No wind86%30.21 "Hg10 mi
3:53 AM46 °FClear.No wind86%30.19 "Hg10 mi
2:53 AM47 °FClear.No wind83%30.19 "Hg10 mi
1:53 AM48 °FClear.No wind83%30.21 "Hg10 mi
Weather by CustomWeather, © 2015

See weather overviewHow to use our weather pages